Погода в Павлодольской

Россия / Республика Северная Осетия — Алания     43°43′11″N   44°29′06″E
темп.,
°C
ветер,
м/с
пор.,
м/с
влажн.,
%
обл.,
%
осадки,
мм/ч
давл.,
гПа
погр.,
м
9 мая, вс
вс900:00+11в348626 0.0 101164
03:00+10всв229199 0.0 100914
06:00+12ссз1186100 0.0 100957
09:00+18сз3466100 0.0 1009571
12:00+22ссз445689 0.0 10081347
15:00+17сз111375100 0.0 1009985
18:00+9зсз111886100 1.5 1016899
21:00+7зсз91788100 3.4 1020967
10 мая, пн
пн1000:00+8зсз71485100 0.7 1022899
03:00+7зсз61480100 0.7 1021669
06:00+8юз3878100 0.0 1022622
09:00+12зсз7105094 0.1 10212036
12:00+14зсз784498 0.1 10202098
15:00+15зсз574367 0.1 10192173
18:00+12з4659100 0.0 1020366
21:00+8юз5785100 0.4 1022261
11 мая, вт
вт1100:00+7юз3590100 0.1 102096
03:00+6ю118743 0.1 101912
06:00+7в2485100 0.0 1019133
09:00+12в6858100 0.0 10181189
12:00+16в5650100 0.0 10171678
15:00+18вюв444369 0.0 10162040
18:00+16в356074 0.0 1017169
21:00+11вюв5116544 0.0 1018313
12 мая, ср
ср1200:00+8в35795 0.0 101881
03:00+7в35860 0.0 101868
06:00+8в26860 0.0 1018168
09:00+15в46611 0.0 1018872
12:00+19в45520 0.0 10171362
15:00+20в44505 0.0 10161468
18:00+19вюв35650 0.0 1016137
21:00+14вюв33770 0.0 101638
13 мая, чт
чт1300:00+11вюв33870 0.0 101638
03:00+10вюв11875 0.0 101610
06:00+12в22820 0.0 101776
09:00+18в45605 0.0 1016581
12:00+23в55510 0.0 1015887
15:00+25в56455 0.0 10141285
18:00+23вюв23635 0.0 101558
21:00+16в4580100 0.0 101668